Date,TemperatureHighF,TemperatureAvgF,TemperatureLowF,DewpointHighF,DewpointAvgF,DewpointLowF,HumidityHigh,HumidityAvg,HumidityLow,PressureMaxIn,PressureMinIn,WindSpeedMaxMPH,WindSpeedAvgMPH,GustSpeedMaxMPH,PrecipitationSumIn
2013-7-1,75,75,73,75,74,72,98,97,95,29.89,29.85,4,1,11,0.26
2013-7-2,79,73,72,73,72,70,98,96,73,30.13,30.08,6,2,14,0.90
2013-7-3,91,79,71,75,73,71,98,83,58,30.18,30.11,7,2,15,0.01
2013-7-4,90,81,73,76,73,71,99,79,55,30.20,30.12,6,1,15,0.00
2013-7-5,90,81,73,74,72,71,98,77,56,30.17,30.06,9,2,15,0.00
2013-7-6,93,83,75,76,74,72,98,78,51,30.12,30.00,4,1,15,0.00
2013-7-7,91,81,72,75,72,69,98,77,55,30.04,29.92,6,1,16,0.00
2013-7-8,88,76,69,73,70,67,98,82,53,30.02,29.95,6,0,14,0.00
2013-7-9,88,79,71,75,72,69,98,81,60,30.02,29.94,3,0,12,0.00
2013-7-10,90,81,74,76,73,70,98,78,52,29.95,29.79,7,1,13,0.00
2013-7-11,90,77,72,75,72,69,98,87,51,29.84,29.77,3,0,9,0.76
2013-7-12,73,71,69,73,71,68,99,98,97,29.92,29.81,4,0,15,3.71
2013-7-13,90,77,70,78,73,70,100,90,59,30.21,29.92,5,0,11,0.21
2013-7-14,95,80,73,78,74,70,99,84,53,30.27,30.20,2,0,13,0.00
2013-7-15,97,82,69,77,73,69,99,78,47,30.23,30.10,5,0,7,0.00
2013-7-16,99,86,75,78,73,67,98,70,37,30.14,30.07,6,1,13,0.00
2013-7-17,105,87,71,77,72,68,99,69,32,30.12,30.02,3,0,9,0.00
2013-7-18,101,86,74,79,76,73,98,75,48,30.03,29.92,3,0,10,0.00
2013-7-19,96,87,78,78,76,71,95,72,45,29.94,29.81,9,1,16,0.00
2013-7-21,98,83,71,74,72,70,98,74,42,29.87,29.80,1,0,8,0.04
2013-7-22,95,80,72,77,74,71,98,84,52,29.85,29.69,6,0,9,0.00
2013-7-23,90,80,72,78,73,70,99,82,55,29.69,29.54,4,0,14,0.69
2013-7-24,88,77,68,72,69,66,99,78,54,29.81,29.59,5,0,12,0.01
2013-7-25,78,70,63,64,61,55,90,73,58,29.95,29.86,5,1,10,0.00
2013-7-26,89,74,62,67,62,60,97,70,38,30.00,29.94,5,0,11,0.00
2013-7-27,87,75,64,70,66,62,99,77,51,29.99,29.88,5,1,13,0.00
2013-7-28,85,75,68,76,70,65,97,86,61,29.89,29.81,6,0,14,0.15
2013-7-29,88,75,61,70,63,56,99,72,35,30.07,29.88,4,0,12,0.01
2013-7-30,88,72,56,65,60,56,100,70,34,30.14,30.07,3,0,9,0.00
2013-7-31,88,73,60,70,64,60,100,78,47,30.08,29.97,1,0,11,0.00